Regional Weather Roundup
Issued by NWS

Home | Current Version | Previous Version | Graphics & Text | Print | Product List | Glossary On
Versions: 1 2 3 4 5 6 7 8 9 10 11 12 13 14 15 16 17 18 19 20 21 22 23 24 25 26 27 28 29 30 31 32 33 34 35 36 37 38 39 40 41 42 43 44 45 46 47 48 49 50
000
ASUS43 KLOT 100808
RWRIL

ILLINOIS REGIONAL WEATHER ROUNDUP
NATIONAL WEATHER SERVICE CHICAGO/ROMEOVILLE IL
200 AM CST SAT DEC 10 2016

NOTE: "FAIR" INDICATES FEW OR NO CLOUDS BELOW 12,000 FEET WITH NO
SIGNIFICANT WEATHER AND/OR OBSTRUCTIONS TO VISIBILITY.

* THESE STATIONS ARE NOT UNDER NWS QUALITY CONTROL. THEY ALSO MAY NOT
  REPORT WEATHER SUCH AS PRECIPITATION OR FOG.

ILZ001-002-007-009-015-016-024-100900-
NORTHWEST ILLINOIS

CITY           SKY/WX    TMP DP  RH WIND       PRES   REMARKS
MOLINE         CLOUDY    21  14  74 SW3       30.54S
STERLING*      CLOUDY    19  15  84 W7        30.54R WCI  10
SAVANNA*       CLOUDY    19  14  79 W3        30.53R
$$

ILZ003-004-008-010-011-017-018-100900-
NORTH CENTRAL ILLINOIS

CITY           SKY/WX    TMP DP  RH WIND       PRES   REMARKS
ROCKFORD       FLURRIES  18  12  77 W8        30.52S WCI   8
FREEPORT*      CLOUDY    17  13  84 W5        30.52R WCI  10
ROCHELLE*      CLOUDY    18  14  83 W6        30.52R WCI  10
DE KALB*       CLOUDY    18  12  79 W9        30.51R WCI   6
$$

ILZ005-006-012>014-019>023-100900-
NORTHEAST ILLINOIS

CITY           SKY/WX    TMP DP  RH WIND       PRES   REMARKS
CHICAGO-OHARE  CLOUDY    19  11  70 W12       30.50S WCI   7
CHICAGO-MIDWAY CLOUDY    21  11  65 W7        30.51F WCI  12
AURORA         CLOUDY    20  14  77 W7        30.52S WCI  11
LANSING*       CLOUDY    20  15  81 W6        30.52S WCI  12
JOLIET*        CLOUDY    21  15  77 W3        30.53S
WAUKEGAN       CLOUDY    19  12  74 W6        30.47F WCI  11
DUPAGE AIRPORT CLOUDY    18  11  74 W8        30.50S WCI   8
KANKAKEE*      CLOUDY    23  15  71 W7        30.54S WCI  14
WHEELING       CLOUDY    19  11  70 W6        30.52R WCI  11
MORRIS*        CLOUDY    22  16  79 W3        30.52S
ROMEOVILLE*    CLOUDY    20  17  87 NW6       30.52S WCI  12
NORTHERLY ISL    N/A     21  11  65 W12         N/A  WCI   9
$$

LMZ740>746-100900-
SOUTHERN LAKE MICHIGAN

STATION/POSITION SKY/WX   TEMP    WIND        PRES    VSBY  WAVE
                          AIR SEA DIR/SP/G                  HT/PER
                          (F)     (DEG/KT/KT) (MB)    (MI)  (FT/S)
BURNHAM HARBOR             21     290/  9/ 11   N/A
CALUMET HARBOR             20     250/  6/ 11 1032.5S
BURNS HARBOR               24     260/ 19/ 24 1032.8S
$$

ILZ025>027-034>036-040-047-049-050-058-095>099-100900-
WEST-CENTRAL ILLINOIS

CITY           SKY/WX    TMP DP  RH WIND       PRES   REMARKS
QUINCY         CLOUDY    23  16  74 CALM      30.55R
GALESBURG*     CLOUDY    21  16  81 CALM      30.54S
MACOMB*        CLOUDY    22  17  81 CALM      30.57R
JACKSONVILLE*  CLOUDY    22  16  77 SW3       30.56R
PITTSFIELD*    CLOUDY    24  18  78 CALM      30.56S
$$

ILZ028>032-037-038-041>044-048-051>054-059>061-100900-
CENTRAL ILLINOIS

CITY           SKY/WX    TMP DP  RH WIND       PRES   REMARKS
PONTIAC        CLOUDY    23  15  72 W10       30.55R WCI  12
BLOOMINGTON    CLOUDY    21  15  78 W8        30.54R WCI  11
DECATUR        CLOUDY    22  14  71 W3        30.55S
PEORIA         CLOUDY    21  14  74 W3        30.56R
LACON*         CLOUDY    21  13  73 W5        30.54S WCI  14
LINCOLN*       CLOUDY    23  16  74 CALM      30.56R
SPRINGFIELD    CLOUDY    24  17  74 W6        30.57R WCI  17
TAYLORVILLE    CLOUDY    22  17  81 CALM      30.56S
$$

ILZ033-039-045-046-055>057-062-063-100900-
EAST-CENTRAL ILLINOIS

CITY           SKY/WX    TMP DP  RH WIND       PRES   REMARKS
CHAMPAIGN      CLOUDY    22  14  71 W3        30.54S
RANTOUL*       CLOUDY    24  18  80 W5        30.54S WCI  18
MATTOON        CLOUDY    23  15  71 CALM      30.54F
PARIS*         CLOUDY    22  18  83 CALM      30.56F
$$

ILZ079-100>102-100900-
SOUTHWEST ILLINOIS

CITY           SKY/WX    TMP DP  RH WIND       PRES   REMARKS
ALTON          CLOUDY    23  18  81 S3        30.57S
BELLEVILLE     PTCLDY    23  21  91 S2        30.57F
CAHOKIA*       CLOUDY    25  17  72 S3        30.58F
SPARTA*        CLOUDY    23  16  75 CALM      30.60R
$$

ILZ064>066-069>071-074>076-080>082-084>086-088>090-092>094-100900-
SOUTH-CENTRAL ILLINOIS

CITY           SKY/WX    TMP DP  RH WIND       PRES   REMARKS
CARBONDALE     CLOUDY    21  18  88 CALM      30.60R
CAIRO*         PTCLDY    17  16  94 CALM      30.60S
EFFINGHAM*     CLOUDY    23  20  87 S3        30.59R
MARION         CLOUDY    23  21  93 CALM      30.60R
CENTRALIA*     CLOUDY    23  19  85 CALM      30.58S
SALEM*         CLOUDY    24  18  77 CALM      30.58S
METROPOLIS*    CLEAR     17  15  92 CALM      30.61S
$$

ILZ067-068-072-073-078-083-087-091-100900-
SOUTHEAST ILLINOIS

CITY           SKY/WX    TMP DP  RH WIND       PRES   REMARKS
LAWRENCEVILLE  CLOUDY    23  18  81 S3        30.58F
FLORA*         CLOUDY    24  21  89 W3        30.60R
FAIRFIELD*     CLOUDY    21  19  91 CALM      30.58S
HARRISBURG*    CLOUDY    21  19  93 CALM      30.60S
ROBINSON*      CLOUDY    22  17  79 CALM      30.59S
CARMI*         MOCLDY    19  18  96 CALM      30.59S
$$

ABBREVIATIONS USED IN REMARKS
   TC - TEMPERATURE IN CELSIUS
  WCI - WIND CHILL INDEX
   HX - HEAT INDEX
  VSB - VISIBILITY
$$





USA.gov is the U.S. government's official web portal to all federal, state and local government web resources and services.